Location: Asheville, NC
(35.6000°N, 82.5500°W)
Time: 07:34:43
(UTC-04:00)

Vanguard 2 Rocket - Pass Details

Date: 16 February 2018
Orbit: 554 x 3327 km, 32.9° (Epoch: 21 May)

Event Time Altitude Azimuth Distance (km) Brightness Sun altitude
Rises 22:22:17 0° 215° (SW) 4,817 10.7 -50.2°
Enters shadow 22:23:40 - 212° (SSW) 4,493 10.5 -50.5°
Reaches altitude 10° 22:25:14 10° 208° (SSW) 4,159 - -50.8°
Maximum altitude 22:36:22 42° 142° (SE) 3,292 - -52.7°
Drops below altitude 10° 22:53:07 10° 80° (E) 6,168 - -55.6°
Sets 22:58:37 0° 75° (ENE) 7,304 - -56.5°
